Flag for United Kingdom Weather past 2 weeks in Bradford, England, United Kingdom

Now
77 °F

Passing clouds.


Feels Like: 79 °F
Forecast: 55 / 76 °F
Wind: 13 mph from East

Location: Leeds And Bradford

Current Time: Jul 23, 2014 at 3:12:51 PM

Latest Report: Jul 23, 2014 at 2:20 PM


Visibility: N/A

Pressure: 30.21 "Hg

Humidity: 57%

Dew point: 61 °F

Location of BradfordLocation

Historic Weather in Bradford — Graph

°F

Bradford temperature yesterday

Maximum temperature yesterday: 75 °F (at 2:20 PM)
Minimum temperature yesterday: 55 °F (at 2:50 AM)
Average temperature yesterday: 65 °F

Past Weeks' High & Low Weather Summary

 TemperatureHumidityPressure
High75 °F (Jul 17, 4:50 PM)100% (Jul 12, 11:20 PM)30.30 "Hg (Jul 12, 11:20 PM)
Low50 °F (Jul 14, 3:50 AM)46% (Jul 9, 2:20 PM)29.71 "Hg (Jul 13, 4:20 AM)
Average62 °F81%30.00 "Hg
* Reported Jul 8 12:20 PM — Jul 23 12:20 PM, Bradford, Weather by CustomWeather, © 2014

Note: Actual official high and low records may vary slightly from our data, if they occured in-between our weather recording intervals... More about our weather records

Advertising

Bradford weather history for previous 24 hours

 ConditionsComfort  
Time TempWeatherWind HumidityBarometerVisibility
12:20 PM
Jul 23
70 °FPassing clouds.9 mph73%30.24 "HgN/A
11:20 AM66 °FPassing clouds.9 mph83%30.24 "Hg4 mi
10:20 AM63 °FFog.8 mph88%30.24 "Hg3 mi
6:50 AM55 °FFog.7 mph100%30.27 "Hg1 mi
6:20 AM55 °FFog.6 mph100%30.27 "Hg0 mi
5:50 AM55 °FFog.6 mph100%30.27 "Hg0 mi
5:20 AM57 °FFog.6 mph100%30.27 "Hg0 mi
4:50 AM57 °FFog.6 mph100%30.27 "Hg0 mi
4:20 AM57 °FFog.7 mph100%30.27 "Hg0 mi
3:50 AM57 °FFog.3 mph100%30.27 "Hg0 mi
3:20 AM57 °FFog.5 mph100%30.27 "Hg0 mi
2:50 AM57 °FFog.3 mph100%30.30 "Hg1 mi
2:20 AM57 °FFog.3 mph100%30.30 "Hg1 mi
1:50 AM55 °FFog.3 mph100%30.30 "Hg1 mi
1:20 AM55 °FPassing clouds.5 mph100%30.30 "Hg5 mi
12:50 AM57 °FClear.5 mph94%30.30 "Hg10 mi
5:50 PM
Jul 22
75 °FPassing clouds.8 mph61%30.24 "HgN/A
5:20 PM73 °FPassing clouds.5 mph65%30.24 "HgN/A
4:50 PM75 °FPassing clouds.5 mph61%30.24 "HgN/A
4:20 PM75 °FPassing clouds.7 mph65%30.24 "HgN/A
3:50 PM75 °FScattered clouds.3 mph61%30.24 "HgN/A
3:20 PM73 °FScattered clouds.5 mph65%30.24 "HgN/A
Weather by CustomWeather, © 2014

See weather overviewHow to use our weather pages